When you browse on this site, cookies collect data to enhance your experience and personalize the content and advertising you see.
Visit our Privacy Policy to learn more. By continuing to use the site, you agree to this use of cookies and data.
  • In Hungary
  • List of Countries
  • For 7 days
  • Water Temperature
  • Weather Map
  • News
  • Weather Widgets
  • user-avatar
    Login

    Hourly Weather Trois-Rivières

    Today, 17 November, Sunday

    Time Temperature Precipitation Wind Pressure Humidity
    00:00 -13°C° 0 mm 1 mps 774 mmHg 87%
    01:00 -13°C° 0 mm 1 mps 774 mmHg 87%
    02:00 -13°C° 0 mm 1 mps 773 mmHg 87%
    03:00 -13°C° 0 mm 1 mps 772 mmHg 87%
    04:00 -13°C° 0 mm 1 mps 772 mmHg 87%
    05:00 -13°C° 0 mm 1 mps 772 mmHg 87%
    06:00 -14°C° 0 mm 1 mps 772 mmHg 87%
    07:00 -14°C° 0 mm 1 mps 772 mmHg 86%
    08:00 -12°C° 0 mm 1 mps 772 mmHg 84%
    09:00 -10°C° 0 mm 1 mps 771 mmHg 81%
    10:00 -9°C° 0 mm 1 mps 771 mmHg 78%
    11:00 -8°C° 0 mm 1 mps 770 mmHg 77%
    12:00 -7°C° 0 mm 1 mps 769 mmHg 77%
    13:00 -6°C° 0 mm 1 mps 768 mmHg 76%
    14:00 -6°C° 0 mm 1 mps 768 mmHg 80%
    15:00 -7°C° 0 mm 1 mps 767 mmHg 84%
    16:00 -8°C° 0 mm 1 mps 767 mmHg 88%
    17:00 -8°C° 0 mm 1 mps 767 mmHg 89%
    18:00 -10°C° 0 mm 2 mps 767 mmHg 89%
    19:00 -10°C° 0 mm 2 mps 767 mmHg 89%
    20:00 -10°C° 0 mm 2 mps 766 mmHg 89%
    21:00 -10°C° 0 mm 2 mps 766 mmHg 89%
    22:00 -12°C° 0 mm 2 mps 766 mmHg 90%
    23:00 -12°C° 0 mm 2 mps 765 mmHg 89%

    Tomorrow, 18 November, Monday

    Time Temperature Precipitation Wind Pressure Humidity
    00:00 -12°C° 0 mm 2 mps 765 mmHg 89%
    01:00 -12°C° 0 mm 2 mps 765 mmHg 88%
    02:00 -12°C° 0 mm 2 mps 764 mmHg 88%
    03:00 -12°C° 0 mm 2 mps 764 mmHg 88%
    04:00 -12°C° 0 mm 2 mps 763 mmHg 88%
    05:00 -12°C° 0 mm 2 mps 763 mmHg 87%
    06:00 -12°C° 0 mm 2 mps 763 mmHg 87%
    07:00 -12°C° 0 mm 2 mps 763 mmHg 86%
    08:00 -10°C° 0 mm 2 mps 762 mmHg 85%
    09:00 -8°C° 0 mm 2 mps 761 mmHg 84%
    10:00 -7°C° 0 mm 3 mps 761 mmHg 82%
    11:00 -6°C° 0 mm 3 mps 760 mmHg 83%
    12:00 -5°C° 0 mm 3 mps 759 mmHg 84%
    13:00 -4°C° 0 mm 3 mps 758 mmHg 84%
    14:00 -4°C° 0 mm 3 mps 758 mmHg 87%
    15:00 -5°C° 0 mm 3 mps 757 mmHg 89%
    16:00 -5°C° 0 mm 3 mps 757 mmHg 91%
    17:00 -5°C° 0 mm 3 mps 756 mmHg 91%
    18:00 -5°C° 0 mm 4 mps 756 mmHg 91%
    19:00 -7°C° 0 mm 4 mps 756 mmHg 91%
    20:00 -5°C° 0 mm 4 mps 755 mmHg 91%
    21:00 -5°C° 0 mm 4 mps 754 mmHg 91%
    22:00 -4°C° 0 mm 4 mps 754 mmHg 91%
    23:00 -4°C° 0.3 mm 4 mps 753 mmHg 91%

    Day after tomorrow, 19 November, Tuesday

    Time Temperature Precipitation Wind Pressure Humidity
    00:00 -4°C° 0.3 mm 4 mps 753 mmHg 92%
    01:00 -4°C° 0.3 mm 4 mps 752 mmHg 93%
    02:00 -4°C° 1.3 mm 4 mps 752 mmHg 94%
    03:00 -4°C° 1.3 mm 4 mps 752 mmHg 95%
    04:00 -4°C° 1.3 mm 4 mps 751 mmHg 96%
    05:00 -4°C° 1.2 mm 4 mps 751 mmHg 96%
    06:00 -4°C° 1.2 mm 3 mps 751 mmHg 96%
    07:00 -5°C° 1.2 mm 3 mps 751 mmHg 97%
    08:00 -3°C° 1.3 mm 2 mps 751 mmHg 97%
    09:00 -3°C° 1.3 mm 2 mps 751 mmHg 97%
    10:00 -3°C° 1.3 mm 2 mps 751 mmHg 97%
    11:00 -3°C° 1 mm 2 mps 751 mmHg 97%
    12:00 -2°C° 1 mm 2 mps 751 mmHg 97%
    13:00 0°C° 1 mm 1 mps 751 mmHg 97%
    14:00 -2°C° 0.3 mm 2 mps 752 mmHg 98%
    15:00 -1°C° 0.3 mm 2 mps 752 mmHg 98%
    16:00 -1°C° 0.3 mm 2 mps 753 mmHg 98%
    17:00 -2°C° 0.1 mm 2 mps 753 mmHg 98%
    18:00 -2°C° 0.1 mm 2 mps 754 mmHg 97%
    19:00 -2°C° 0.1 mm 2 mps 754 mmHg 97%
    20:00 -3°C° 0 mm 2 mps 754 mmHg 96%
    21:00 -3°C° 0 mm 2 mps 754 mmHg 96%
    22:00 -3°C° 0 mm 2 mps 755 mmHg 95%
    23:00 -4°C° 0 mm 2 mps 755 mmHg 95%

    20 November, Wednesday

    Time Temperature Precipitation Wind Pressure Humidity
    00:00 -4°C° 0 mm 2 mps 755 mmHg 94%
    01:00 -5°C° 0 mm 2 mps 755 mmHg 94%
    02:00 -4°C° 0 mm 2 mps 755 mmHg 94%
    03:00 -2°C° 0 mm 1 mps 755 mmHg 95%
    04:00 -2°C° 0 mm 1 mps 755 mmHg 95%
    05:00 -2°C° 0.2 mm 1 mps 755 mmHg 96%
    06:00 -1°C° 0.2 mm 1 mps 756 mmHg 97%
    07:00 -1°C° 0.2 mm 1 mps 756 mmHg 98%
    08:00 -2°C° 0.4 mm 2 mps 756 mmHg 98%
    09:00 -2°C° 0.4 mm 2 mps 756 mmHg 98%
    10:00 -1°C° 0.4 mm 2 mps 756 mmHg 98%
    11:00 -1°C° 0.2 mm 2 mps 756 mmHg 99%
    12:00 -1°C° 0.2 mm 2 mps 756 mmHg 99%
    13:00 0°C° 0.2 mm 3 mps 756 mmHg 99%
    14:00 0°C° 0 mm 3 mps 756 mmHg 98%
    15:00 +1°C° 0 mm 2 mps 756 mmHg 98%
    16:00 +1°C° 0 mm 2 mps 757 mmHg 97%
    17:00 +1°C° 0 mm 2 mps 757 mmHg 95%
    18:00 +1°C° 0 mm 2 mps 757 mmHg 93%
    19:00 +1°C° 0 mm 2 mps 758 mmHg 91%
    20:00 -1°C° 0 mm 3 mps 758 mmHg 90%
    21:00 -2°C° 0 mm 3 mps 758 mmHg 90%
    22:00 -4°C° 0 mm 3 mps 758 mmHg 89%
    23:00 -4°C° 0 mm 3 mps 758 mmHg 89%

    21 November, Thursday

    Time Temperature Precipitation Wind Pressure Humidity
    00:00 -4°C° 0 mm 2 mps 758 mmHg 90%
    01:00 -4°C° 0 mm 2 mps 758 mmHg 90%
    02:00 -4°C° 0 mm 2 mps 758 mmHg 90%
    03:00 -4°C° 0 mm 2 mps 759 mmHg 91%
    04:00 -5°C° 0 mm 3 mps 759 mmHg 92%
    05:00 -4°C° 0 mm 2 mps 759 mmHg 91%
    06:00 -4°C° 0 mm 2 mps 759 mmHg 91%
    07:00 -4°C° 0 mm 2 mps 760 mmHg 91%
    08:00 -3°C° 0 mm 2 mps 760 mmHg 93%
    09:00 -2°C° 0 mm 2 mps 760 mmHg 95%
    10:00 -1°C° 0 mm 2 mps 760 mmHg 96%
    11:00 -1°C° 0 mm 2 mps 759 mmHg 97%
    12:00 +1°C° 0 mm 2 mps 759 mmHg 98%
    13:00 +1°C° 0 mm 2 mps 759 mmHg 98%
    14:00 -1°C° 0 mm 2 mps 758 mmHg 98%
    15:00 -1°C° 0 mm 2 mps 758 mmHg 98%
    16:00 -1°C° 0 mm 3 mps 757 mmHg 97%
    17:00 -1°C° 0 mm 2 mps 757 mmHg 98%
    18:00 -2°C° 0 mm 2 mps 756 mmHg 98%
    19:00 -2°C° 0 mm 2 mps 756 mmHg 98%
    20:00 -2°C° 0 mm 2 mps 755 mmHg 97%
    21:00 -2°C° 0 mm 3 mps 754 mmHg 97%
    22:00 -2°C° 0 mm 3 mps 753 mmHg 97%
    23:00 -2°C° 0.2 mm 3 mps 751 mmHg 96%

    22 November, Friday

    Time Temperature Precipitation Wind Pressure Humidity
    00:00 -1°C° 0.2 mm 3 mps 750 mmHg 95%
    01:00 -1°C° 0.2 mm 3 mps 748 mmHg 95%
    02:00 -2°C° 1 mm 4 mps 746 mmHg 96%
    03:00 -2°C° 1 mm 4 mps 745 mmHg 97%
    04:00 -1°C° 1 mm 4 mps 743 mmHg 98%
    05:00 -1°C° 2.2 mm 5 mps 742 mmHg 98%
    06:00 0°C° 2.2 mm 5 mps 741 mmHg 99%
    07:00 0°C° 2.2 mm 5 mps 739 mmHg 99%
    08:00 -1°C° 0.4 mm 7 mps 740 mmHg 95%
    09:00 -1°C° 0.4 mm 9 mps 740 mmHg 91%
    10:00 -2°C° 0.4 mm 11 mps 741 mmHg 87%
    11:00 -2°C° 0 mm 11 mps 741 mmHg 84%
    12:00 -3°C° 0 mm 10 mps 742 mmHg 82%
    13:00 -3°C° 0 mm 10 mps 743 mmHg 79%
    14:00 -4°C° 0 mm 9 mps 744 mmHg 80%
    15:00 -4°C° 0 mm 7 mps 745 mmHg 81%
    16:00 -5°C° 0 mm 6 mps 746 mmHg 82%
    17:00 -6°C° 0 mm 6 mps 746 mmHg 82%
    18:00 -8°C° 0 mm 6 mps 747 mmHg 82%
    19:00 -8°C° 0 mm 6 mps 748 mmHg 82%
    20:00 -9°C° 0 mm 6 mps 748 mmHg 82%
    21:00 -9°C° 0 mm 6 mps 749 mmHg 82%
    22:00 -9°C° 0 mm 6 mps 749 mmHg 82%
    23:00 -9°C° 0 mm 6 mps 749 mmHg 82%
    Show more